Regional Weather Roundup
Issued by NWS Newport/Morehead, NC

Current Version | Previous Version | Graphics & Text | Print | Product List | Glossary Off
Versions: 1 2 3 4 5 6 7 8 9 10 11 12 13 14 15 16 17 18 19 20 21 22 23 24 25 26 27 28 29 30 31 32 33 34 35 36 37 38 39 40 41 42 43 44 45 46 47 48 49 50

537
ASUS42 KMHX 251213
RWRMHX
WEATHER ROUNDUP FOR EASTERN NORTH CAROLINA
NATIONAL WEATHER SERVICE NEWPORT/MOREHEAD CITY NC
800 AM EDT SAT MAR 25 2017

NOTE: "FAIR" INDICATES FEW OR NO CLOUDS BELOW 12,000 FEET
WITH NO SIGNIFICANT WEATHER AND/OR OBSTRUCTIONS TO VISIBILITY

NCZ015>017-031-032-045>047-102-103-251300-
NORTH COAST

CITY           SKY/WX    TMP DP  RH WIND       PRES   REMARKS
EDENTON        NOT AVBL
ELIZABETH CITY MOSUNNY   55  50  83 SW8       30.33R
KITTY HAWK     NOT AVBL
MANTEO         MOSUNNY   53  50  90 SW3       30.35R

$$

NCZ045>047-081-094-103-104-251300-
CENTRAL COAST

CITY           SKY/WX    TMP DP  RH WIND       PRES   REMARKS
FRISCO         SUNNY     63  52  67 W7        30.35R

$$

NCZ095-097-098-100-101-251300-
SOUTHERN COAST

CITY           SKY/WX    TMP DP  RH WIND       PRES   REMARKS
BEAUFORT       MOSUNNY   61  55  81 W5        30.35R
CEDAR ISLAND   NOT AVBL
JACKSONVILLE   MOSUNNY   55  52  89 CALM      30.34R
PINEY ISLAND   SUNNY    N/A N/A N/A SW6       30.35R
WILMINGTON     MOCLDY    53  51  93 CALM      30.34R


$$

NCZ011>013-027>030-043-044-078>080-089-090>093-098-251300-
COASTAL PLAIN

CITY           SKY/WX    TMP DP  RH WIND       PRES   REMARKS
AHOSKIE        NOT AVBL
CLINTON        MOCLDY    53  52  96 CALM      30.36R
ELIZABETHTOWN  CLOUDY    55  53  94 CALM      30.34R
GOLDSBORO      PTCLDY    55  55 100 SW3       30.33R
GREENVILLE     SUNNY     55  52  88 W3        30.34R
HAVELOCK       SUNNY     51  49  92 SW3       30.35R
KENANSVILLE    PTCLDY    52  50  93 CALM      30.35R
KINSTON        SUNNY     55  52  88 SW5       30.35R
NEW BERN       MOSUNNY   53  51  93 SW3       30.35R
RICHLANDS      SUNNY     49  47  93 CALM      30.35R
ROCKY MOUNT    CLEAR     50  49  96 S3        30.34R
WASHINGTON     SUNNY     54  50  86 CALM      30.34R
WHITEVILLE     CLOUDY    53  51  91 CALM      30.34R

$$

AMZ130-135-150-152-154-156-158-170-250-252-270-ANZ085-086-088-633-658-670-251300-
MARINE OBSERVATIONS

STATION/POSITION TIME  TEMP    WIND        PRES    WAVE   SWELL
                       AIR SEA DIR/SP/G            HT/PER HT/PER
                 (UTC) (F)     (DEG/KT/KT) (MB)    (FT/S) (FT/S)
CHESAPEAKE LIGHT NOT AVBL
64 E VA BEACH    1150   53 51  220/ 10/ 12 1026.8    3/ 5   2/ 5
DUCK             1148   57 47  230/ 10/ 13 1026.5
2 E DUCK         1200      48                N/A     2/11
OREGON INLET     1142   54 54  220/  9/ 10 1027.3
13E OREGON INLT  NOT AVBL
HATTERAS CG      1148   61 55  250/  8/ 10 1027.2
DIAMOND BUOY     1150   69 76  220/ 14/ 17 1027.1    4/ 5   2/ 9
CAPE LOOKOUT     1200   65     250/  5/  7 1027.3
BEAUFORT LAB     1148   61 52  230/  2/  4 1026.6
30 SE NEW RVR IN 1108   65     220/  6/  8 1027.0
30 SE NEW RVR IN 1143      65                N/A     3/10
27 SE WRIGHTSVLE 1108   63 62  180/  4/  8 1025.7
5 SE WRIGHTSVLE  1108   59 57  210/  4/  4 1026.6
225 S CAPE HAT   1150   64 73   70/  8/ 12 1029.1    5/ 9   5/ 9
41 SE CHARLESTON 1050   69 71  160/ 14/ 17 1025.0    4/ 8   3/ 8

$$




USA.gov is the U.S. government's official web portal to all federal, state and local government web resources and services.